Probability
0 0 0 0 0 0 0 0 0 0 0 0 0 0 1 2 3 5 8 10 11 10 7 5 3 2 3 2 1 0 0 0 0 0 0 0 0 0 0 0 0 0 0
0 0 0 0 0 0 0 0 0 0 0 0 0 0 0 1 2 3 4 5 6 6 5 3 1 1 2 1 0 0 0 0 0 0 0 0 0 0 0 0 0 0 0
0 0 0 0 0 0 0 0 0 0 0 0 0 0 0 0 1 1 1 0 1 2 2 1 0 0 0 0 0 0 0 0 0 0 0 0 0 0 0 0 0 0 0
0 0 0 0 0 0 0 0 0 0 0 0 0 0 0 0 0 0 0 0 0 0 0 0 0 0 0 0 0 0 0 0 0 0 0 0 0 0 0 0 0 0 0
0 0 0 0 0 0 0 0 0 0 0 0 0 0 0 0 0 0 0 0 0 0 0 0 0 0 0 0 0 0 0 0 0 0 0 0 0 0 0 0 0 0 0
0 0 0 0 0 0 0 0 0 0 0 0 0 0 0 0 0 0 0 0 0 0 0 0 0 0 0 0 0 0 0 0 0 0 0 0 0 0 0 0 0 0 0
0 0 0 0 0 0 0 0 0 0 0 0 0 0 0 0 0 0 0 0 0 0 0 0 0 0 0 0 0 0 0 0 0 0 0 0 0 0 0 0 0 0 0
0 0 0 0 0 0 0 0 0 0 0 0 0 0 0 0 0 0 0 0 0 0 0 0 0 0 0 0 0 0 0 0 0 0 0 0 0 0 0 0 0 0 0
0 0 0 0 0 0 0 0 0 0 0 0 0 0 0 0 0 0 0 0 0 0 0 0 0 0 0 0 0 0 0 0 0 0 0 0 0 0 0 0 0 0 0
0 0 0 0 0 0 0 0 0 0 0 0 0 0 0 0 0 0 0 0 0 0 0 0 0 0 0 0 0 0 0 0 0 0 0 0 0 0 0 0 0 0 0
0 0 0 0 0 0 0 0 0 0 0 0 0 0 0 0 0 0 0 0 0 0 0 0 0 0 0 0 0 0 0 0 0 0 0 0 0 0 0 0 0 0 0
0 0 0 0 0 0 0 0 0 0 0 0 0 0 0 0 0 0 0 0 0 0 0 0 0 0 0 0 0 0 0 0 0 0 0 0 0 0 0 0 0 0 0
0 0 0 0 0 0 0 0 0 0 0 0 0 0 0 0 0 0 0 0 0 0 0 0 0 0 0 0 0 0 0 0 0 0 0 0 0 0 0 0 0 0 0
0 0 0 0 0 0 0 0 0 0 0 0 0 0 0 0 0 0 0 0 0 0 0 0 0 0 0 0 0 0 0 0 0 0 0 0 0 0 0 0 0 0 0
0 0 0 0 0 0 0 0 0 0 0 0 0 0 0 0 0 0 0 0 0 0 0 0 0 0 0 0 0 0 0 0 0 0 0 0 0 0 0 0 0 0 0
0 0 0 0 0 0 0 0 0 0 0 0 0 0 0 0 0 0 0 0 0 0 0 0 0 0 0 0 0 0 0 0 0 0 0 0 0 0 0 0 0 0 0
0 0 0 0 0 0 0 0 0 0 0 0 0 0 0 0 0 0 0 0 0 0 0 0 0 0 0 0 0 0 0 0 0 0 0 0 0 0 0 0 0 0 0
0 0 0 0 0 0 0 0 0 0 0 0 0 0 0 0 0 0 0 0 0 0 0 0 0 0 0 0 0 0 0 0 0 0 0 0 0 0 0 0 0 0 0
0 0 0 0 0 0 0 0 0 0 0 0 0 0 0 0 0 0 0 0 0 0 0 0 0 0 0 0 0 0 0 0 0 0 0 0 0 0 0 0 0 0 0
0 0 0 0 0 0 0 0 0 0 0 0 0 0 0 0 0 0 0 0 0 0 0 0 0 0 0 0 0 0 0 0 0 0 0 0 0 0 0 0 0 0 0
0 0 0 0 0 0 0 0 0 0 0 0 0 0 0 0 0 0 0 0 0 0 0 0 0 0 0 0 0 0 0 0 0 0 0 0 0 0 0 0 0 0 0
0 0 0 0 0 0 0 0 0 0 0 0 0 0 0 0 0 0 0 0 0 0 0 0 0 0 0 0 0 0 0 0 0 0 0 0 0 0 0 0 0 0 0
0 0 0 0 0 0 0 0 0 0 0 0 0 0 0 0 0 0 0 0 0 0 0 0 0 0 0 0 0 0 0 0 0 0 0 0 0 0 0 0 0 0 0
0 0 0 0 0 0 0 0 0 0 0 0 0 0 0 0 0 0 0 0 0 0 0 0 0 0 0 0 0 0 0 0 0 0 0 0 0 0 0 0 0 0 0
0 0 0 0 0 0 0 0 0 0 0 0 0 0 0 0 0 0 0 0 0 0 0 0 0 0 0 0 0 0 0 0 0 0 0 0 0 0 0 0 0 0 0
0 0 0 0 0 0 0 0 0 0 0 0 0 0 0 0 0 0 0 0 0 0 0 0 0 0 0 0 0 0 0 0 0 0 0 0 0 0 0 0 0 0 0
Wind_Speed
6 6 6 6 5 6 5 5 6 6 5 3 3 4 3 2 2 2 4 7 7 7 6 4 5 5 5 5 5 3 3 2 2 1 1 2 2 3 3 3 3 4 4
6 6 6 5 5 5 5 5 6 6 6 4 3 2 3 2 1 2 3 5 5 5 5 6 5 5 4 4 5 4 3 2 3 3 1 2 2 1 1 1 1 2 1
6 5 5 5 5 5 5 4 4 5 5 5 3 3 3 3 4 4 3 4 4 3 4 6 5 6 5 6 6 5 6 4 3 2 3 3 3 2 2 1 1 1 2
4 4 4 5 5 4 3 3 4 4 4 4 4 5 3 3 3 3 3 5 5 3 2 3 5 5 5 5 6 6 4 5 3 2 2 2 3 2 1 2 2 2 3
4 4 5 4 5 4 4 3 3 3 3 3 3 3 2 1 2 2 4 5 5 5 5 3 2 4 4 6 6 6 6 5 4 4 3 2 1 2 2 2 3 3 3
5 5 6 5 6 6 5 4 3 3 3 2 1 1 1 1 2 3 3 3 3 3 5 4 3 3 3 5 6 6 8 6 5 4 4 4 3 3 4 4 3 3 3
5 6 7 7 7 7 7 6 5 5 5 4 3 2 2 2 2 2 2 2 2 2 3 4 3 3 4 4 5 6 7 8 7 7 5 5 4 3 4 3 3 2 2
6 7 9 9 9 9 8 7 6 7 6 6 5 5 4 3 3 4 4 3 3 3 3 3 3 3 3 4 4 5 7 7 8 8 7 5 5 5 5 4 3 2 2
7 8 9 9 9 9 9 8 7 8 8 8 7 7 7 6 6 6 5 4 4 4 4 4 3 3 3 3 3 4 6 7 8 8 8 6 5 5 5 5 4 3 2
7 8 8 7 7 7 8 8 8 9 9 9 8 8 8 8 8 6 7 7 6 6 5 5 4 4 3 2 2 3 4 6 7 6 8 8 5 5 5 5 5 5 4
8 8 7 7 8 8 8 8 9 9 10 10 10 9 9 9 8 8 9 8 7 7 7 6 5 5 5 3 3 3 3 4 5 6 8 9 8 6 6 6 5 6 5
8 8 8 8 8 9 9 10 10 11 12 11 10 11 10 9 9 10 10 9 9 8 8 7 6 6 6 5 4 4 4 4 4 5 6 8 7 9 7 6 7 6 7
9 8 8 9 9 10 10 10 11 12 12 11 11 12 12 11 11 12 11 10 10 10 9 8 8 8 7 6 6 6 5 5 5 5 6 6 7 9 7 8 7 6 6
9 9 9 10 10 11 11 11 12 12 13 12 12 13 13 13 13 12 11 11 11 10 10 10 10 9 8 7 7 6 6 6 6 6 6 5 6 8 8 8 9 7 7
10 10 10 10 10 11 11 11 12 12 12 12 13 14 14 13 13 12 11 11 10 11 11 10 9 9 8 8 8 7 7 6 6 6 6 6 7 9 8 7 8 9 7
11 11 11 11 11 11 11 11 11 11 11 12 14 14 14 14 14 13 12 11 11 10 9 10 10 9 8 11 13 10 7 7 7 6 6 6 8 9 11 12 12 12 11
12 12 11 11 11 11 11 12 12 12 12 13 14 14 14 14 14 15 13 11 11 10 9 10 10 10 11 14 14 13 8 7 7 7 6 6 5 7 7 9 12 13 14
10 11 11 11 11 11 12 12 12 12 13 14 14 14 14 15 14 13 13 11 9 8 8 9 9 9 10 14 14 14 9 7 8 8 7 7 6 6 7 6 8 9 11
10 11 12 13 12 12 12 13 13 13 14 15 15 15 14 15 14 14 12 10 8 8 8 6 8 9 10 12 13 12 6 7 8 8 8 8 8 9 10 8 8 8 8
10 11 11 12 12 12 12 13 14 14 15 15 15 15 14 14 14 13 11 9 8 8 8 8 7 8 9 11 12 11 5 6 6 6 6 9 9 9 10 9 9 10 8
13 12 12 12 12 12 12 14 14 15 15 16 15 15 13 12 12 10 9 8 7 7 7 7 7 7 9 10 12 11 6 6 6 5 5 5 9 10 11 10 8 9 8
11 11 11 13 12 11 12 14 15 15 15 15 15 14 12 10 9 8 7 6 6 6 6 5 6 5 6 8 9 11 11 9 6 6 5 5 7 8 9 8 8 10 9
11 11 12 13 13 11 11 14 15 15 15 14 14 12 11 9 8 7 6 5 4 4 4 4 5 4 4 5 10 10 11 12 7 6 7 7 6 5 6 8 9 10 8
11 11 12 14 14 13 13 13 14 14 14 14 13 11 10 9 7 6 4 4 3 3 4 4 5 4 3 4 4 4 5 8 8 6 5 5 5 4 4 5 7 7 7
10 10 12 13 14 14 14 13 13 13 13 13 11 10 8 8 7 6 4 4 4 4 4 4 4 4 4 5 7 5 5 5 6 5 4 3 3 4 4 4 5 5 6
11 11 12 13 14 14 14 13 12 12 12 11 10 8 7 6 5 5 5 3 3 3 6 6 5 4 5 4 5 7 7 7 8 6 4 5 5 5 5 5 5 5 6
Wind_Direction
45 40 38 36 42 35 24 15 5 357 353 341 332 328 317 287 246 240 264 251 237 223 200 193 187 182 183 185 177 161 171 182 160 148 296 299 267 255 245 244 245 253 257
39 29 26 25 32 33 26 22 15 4 357 342 314 295 306 315 352 359 306 276 252 226 204 196 190 186 180 180 179 165 161 177 171 159 157 307 327 319 300 267 230 260 276
33 15 9 10 20 23 16 14 7 3 360 354 343 339 353 356 13 7 345 319 303 259 219 206 195 190 184 189 189 177 169 178 192 187 163 176 223 290 317 313 313 322 302
9 356 352 354 2 358 351 351 351 355 355 7 35 45 35 17 356 337 333 335 342 334 304 239 211 200 196 195 193 184 176 164 179 196 210 194 170 173 299 312 313 309 290
333 324 322 321 316 312 311 307 318 335 342 9 41 61 51 359 319 334 347 349 352 359 3 344 275 227 214 211 199 184 185 180 176 178 175 180 185 178 193 263 304 311 287
298 298 299 298 294 292 290 287 295 301 308 331 18 69 52 349 348 345 343 341 337 344 356 356 340 292 246 224 212 201 194 194 188 186 181 173 171 185 193 224 254 283 288
278 284 285 283 279 278 274 272 276 280 283 285 280 258 244 252 266 278 291 303 311 310 320 333 326 310 281 253 222 209 208 201 199 199 200 198 196 173 172 196 233 261 285
272 275 274 274 276 277 276 270 265 266 271 273 272 268 258 248 249 250 250 255 253 259 271 288 298 300 297 279 238 223 217 209 209 209 204 203 205 193 184 185 192 236 264
273 274 277 280 281 282 279 271 266 267 267 263 262 263 258 250 249 252 251 254 255 259 260 265 276 284 289 292 272 237 228 215 213 214 209 209 206 197 197 193 188 194 225
284 285 287 291 293 292 290 286 270 264 266 266 260 260 252 248 246 247 250 249 252 255 264 268 266 267 267 264 261 267 249 230 222 214 211 213 209 200 196 197 198 200 204
287 288 293 298 296 297 293 288 283 277 274 270 266 263 260 254 248 244 246 246 247 246 248 254 260 264 261 248 234 240 260 251 241 226 217 220 209 202 199 193 192 199 202
287 289 293 295 295 293 291 287 283 280 277 275 273 270 265 260 252 248 246 242 241 241 240 241 243 250 253 243 232 239 237 245 254 247 229 225 215 210 201 194 196 198 200
298 299 300 296 293 292 291 289 286 284 284 284 281 279 275 268 259 252 246 240 237 238 236 232 234 239 242 240 239 234 229 227 237 247 245 235 219 215 205 199 198 196 195
299 296 296 294 293 293 294 293 291 289 289 288 284 281 277 273 268 260 251 242 235 233 233 230 229 232 236 237 238 238 233 226 224 227 237 243 232 225 212 203 201 191 189
297 296 295 295 294 296 296 294 292 292 292 291 288 284 281 278 275 268 258 250 239 234 230 228 227 228 229 233 230 229 232 227 226 226 229 233 240 241 225 208 198 187 189
298 300 301 301 301 300 300 298 296 295 293 291 289 288 286 284 280 274 265 255 245 236 226 224 224 225 228 230 227 220 222 224 227 234 236 238 237 244 237 222 204 190 189
302 302 302 299 298 299 300 300 296 297 294 291 291 290 287 285 282 279 273 261 251 239 227 223 219 223 228 231 235 231 220 224 227 230 236 247 237 219 229 225 214 206 202
297 299 299 298 298 298 299 299 300 299 297 295 292 291 288 285 283 279 271 263 255 244 234 227 220 220 229 229 233 236 228 226 231 232 233 240 249 232 215 214 215 213 210
296 299 300 301 301 302 303 304 304 302 300 298 295 292 288 286 284 279 270 263 254 245 233 223 219 220 231 231 230 229 218 222 232 234 232 233 243 236 214 209 212 214 215
301 301 301 302 304 305 308 309 310 309 307 304 300 296 291 286 283 280 273 264 251 242 235 230 222 221 229 233 230 220 207 217 229 236 235 233 236 232 212 212 208 211 206
300 302 305 308 309 311 313 313 313 312 311 308 305 303 299 293 287 283 277 268 257 244 231 230 227 224 228 235 233 217 199 208 219 228 233 234 233 229 217 216 214 209 189
305 308 311 314 313 314 317 316 316 315 314 313 311 310 306 301 299 293 285 276 259 243 232 228 232 230 229 230 233 223 211 205 209 218 225 230 230 227 218 215 210 189 178
307 311 313 316 317 318 318 317 316 318 319 318 316 315 313 310 303 295 288 279 257 239 225 218 226 232 227 226 228 226 220 212 208 217 219 223 223 218 216 216 198 181 181
312 313 317 320 321 321 321 317 317 320 320 321 321 320 320 317 312 303 289 271 251 232 222 219 224 229 230 226 218 214 214 211 210 213 212 208 205 204 203 193 192 192 183
312 314 318 319 320 321 321 321 322 324 324 323 323 324 324 323 321 316 306 285 255 233 220 221 216 216 230 230 211 199 200 194 193 179 176 177 181 193 192 188 188 182 173
314 317 320 322 322 322 320 322 325 327 326 324 325 324 323 324 323 323 326 330 311 263 241 240 233 233 233 237 217 211 205 187 168 164 177 188 195 194 191 184 178 173 169